Regional Weather Roundup
Issued by NWS

Home | Current Version | Previous Version | Graphics & Text | Print | Product List | Glossary On
Versions: 1 2 3 4 5 6 7 8 9 10 11 12 13 14 15 16 17 18 19 20 21 22 23 24 25 26 27 28 29 30 31 32 33 34 35 36 37 38 39 40 41 42 43 44 45 46 47 48 49 50
000
ASUS43 KLMK 301310
RWRKY
KENTUCKY REGIONAL WEATHER ROUNDUP
NATIONAL WEATHER SERVICE LOUISVILLE KY
900 AM EDT WED JUL 30 2014

NOTE "FAIR" INDICATES FEW OR NO CLOUDS BELOW 12,000 FEET
WITH NO SIGNIFICANT WEATHER AND/OR OBSTRUCTIONS TO VISIBILITY.

KYZ001>023-026-027-061>063-070>075-301400-
WESTERN AND SOUTH CENTRAL KENTUCKY

CITY           SKY/WX    TMP DP  RH WIND       PRES   REMARKS
PADUCAH        PTSUNNY   65  59  81 CALM      30.11R
HENDERSON      SUNNY     64  59  82 SW3       30.10S
OWENSBORO      SUNNY     64  58  81 CALM      30.11R
HOPKINSVILLE   CLOUDY    62  57  85 CALM      30.12R
BOWLING GREEN  SUNNY     65  56  72 CALM      30.12R
GLASGOW        MOSUNNY   60  60 100 CALM      30.13R
$$

KYZ024-025-028>034-038-045-046-053-301400-
NORTH CENTRAL KENTUCKY

CITY           SKY/WX    TMP DP  RH WIND       PRES   REMARKS
LOUISVILLE/SDF SUNNY     67  58  72 CALM      30.09S
LOUISVILLE/LOU SUNNY     67  60  78 CALM      30.10S
FORT KNOX      SUNNY     65  61  87 S2        30.10R
$$

KYZ035>037-039>044-047>052-055>060-089>105-301400-
NORTHEAST KENTUCKY

CITY           SKY/WX    TMP DP  RH WIND       PRES   REMARKS
LEXINGTON      MOSUNNY   63  56  78 SW6       30.11S
COVINGTON      MOSUNNY   65  60  84 SW6       30.08R
FRANKFORT      SUNNY     63  59  87 SW6       30.10R
$$

KYZ054-064>069-076>088-106>120-301400-
SOUTHEAST KENTUCKY

CITY           SKY/WX    TMP DP  RH WIND       PRES   REMARKS
JACKSON        MOSUNNY   57  55  93 CALM      30.14R
LONDON         SUNNY     59  55  87 VRB3      30.14R
SOMERSET       CLOUDY    57  57 100 CALM      30.14R FOG
MIDDLESBORO    CLOUDY    55  53  94 CALM      30.16S
MONTICELLO     SUNNY     61  57  86 CALM      30.15R
$$



USA.gov is the U.S. government's official web portal to all federal, state and local government web resources and services.